Printer-friendly version
Follow the MPC on Twitter Follow the MPC on Facebook The MPC blog
Minor Planet Center

MPEC 2001-B22 : 2000 YV137

The following Minor Planet Electronic Circular may be linked-to from your own Web pages, but must not otherwise be redistributed electronically.

A form allowing access to any MPEC is at the bottom of this page.


Read MPEC 2001-B21 Read MPEC 2001-B23


M.P.E.C. 2001-B22                                Issued 2001 Jan. 23, 21:54 UT

     The Minor Planet Electronic Circulars contain information on unusual
         minor planets and routine data on comets.  They are published
   on behalf of Commission 20 of the International Astronomical Union by the
          Minor Planet Center, Smithsonian Astrophysical Observatory,
                          Cambridge, MA 02138, U.S.A.

             Prepared using the Tamkin Foundation Computer Network

                              MPC@CFA.HARVARD.EDU
          URL http://cfa-www.harvard.edu/iau/mpc.html  ISSN 1523-6714

                                  2000 YV137

Observations:
     K00YD7V* C2000 12 31.52823 09 05 54.50 -07 11 09.6          20.2        608
     K00YD7V  C2000 12 31.53845 09 05 53.75 -07 10 56.2          20.1        608
     K00YD7V  C2000 12 31.54835 09 05 53.02 -07 10 43.6          20.0        608
     K00YD7V  C2001 01 01.04649 09 05 17.83 -07 00 03.2                      557
     K00YD7V  C2001 01 01.05106 09 05 17.47 -06 59 57.3                      557
     K00YD7V  C2001 01 01.05333 09 05 17.31 -06 59 54.7          19.8 V      557
     K00YD7V  C2001 01 01.07946 09 05 15.25 -06 59 20.3          18.4 R      046
     K00YD7V  C2001 01 01.08314 09 05 15.16 -06 59 15.3                      046
     K00YD7V  C2001 01 01.08449 09 05 15.02 -06 59 14.7                      046
     K00YD7V  C2001 01 01.08593 09 05 14.91 -06 59 13.1                      046
     K00YD7V  C2001 01 04.46677 09 00 57.02 -05 41 09.0          19.8        608
     K00YD7V  C2001 01 04.47705 09 00 56.17 -05 40 54.0          19.9        608
     K00YD7V  C2001 01 04.48751 09 00 55.27 -05 40 38.7          19.6        608
     K00YD7V  C2001 01 22.48901 08 31 13.32 +03 22 32.3          19.2        608
     K00YD7V  C2001 01 22.49985 08 31 12.13 +03 22 54.3          20.3        608
     K00YD7V  C2001 01 22.51084 08 31 10.82 +03 23 17.4          19.5        608
     K00YD7V FC2001 01 23.86895 08 28 43.62 +04 10 02.4          18.7 V      046
     K00YD7V FC2001 01 23.87105 08 28 43.29 +04 10 07.4                      046
     K00YD7V FC2001 01 23.87208 08 28 43.28 +04 10 08.7                      046
     K00YD7V FC2001 01 23.87503 08 28 42.90 +04 10 13.6                      046

Observer details:
046 Klet.  Observers J. Ticha, M. Tichy, M. Kocer.  0.57-m f/5.2
    reflector + CCD.
557 Ondrejov.  Observers P. Pravec, L. Sarounova, P. Kusnirak.  0.65-m
    f/3.6 reflector + CCD.
608 Haleakala-NEAT/MSSS.  Observers E. F. Helin, S. Pravdo, K. Lawrence,
    P. Kervin, R. Maeda, M. Skinner.  1.2-m reflector + CCD.

Orbital elements:
2000 YV137                                                           PHA 0.034D
Epoch 2001 Jan. 11.0 TT = JDT 2451920.5                 Spahr
M  99.19220              (2000.0)            P               Q
n   0.56589345     Peri.  211.15203     +0.93840897     +0.13199147
a   1.4475923      Node   137.29096     -0.12800226     +0.99120635
e   0.3104252      Incl.   28.08531     -0.32094241     -0.00939320
P   1.74           H   17.9           G   0.15
From 20 observations 2000 Dec. 31-2001 Jan. 23.

Ephemeris:
2000 YV137               a,e,i = 1.45, 0.31, 28                  q = 0.9982
Date    TT    R. A. (2000) Decl.     Delta      r     Elong.  Phase     V
2001 01 11    08 51.24   -02 46.3    0.719    1.639   148.4    18.3    19.2
2001 01 21    08 33.93   +02 31.7    0.710    1.674   161.9    10.6    18.9
2001 01 31    08 16.06   +08 17.8    0.731    1.706   166.9     7.5    18.9
2001 02 10    08 00.61   +13 46.4    0.783    1.735   157.2    12.7    19.3
2001 02 20    07 49.60   +18 25.7    0.862    1.763   144.4    19.0    19.8
2001 03 02    07 43.89   +22 05.5    0.962    1.787   132.5    24.1    20.2
2001 03 12    07 43.37   +24 50.1    1.077    1.810   121.8    27.8    20.6
2001 03 22    07 47.34   +26 48.9    1.201    1.829   112.3    30.3    20.9
2001 04 01    07 55.04   +28 10.9    1.332    1.847   103.9    31.7    21.2
2001 04 11    08 05.72   +29 03.3    1.464    1.861    96.2    32.4    21.4
2001 04 21    08 18.71   +29 31.4    1.595    1.874    89.2    32.4    21.6

Timothy B. Spahr             (C) Copyright 2001 MPC           M.P.E.C. 2001-B22

Read MPEC 2001-B21 Read MPEC 2001-B23


MPEC number:

Enter an MPEC number in one of the following forms:

  • 1997-B01 (the full form)
  • J97B01 (the packed version of the full form)
  • B01 (the abbreviated form)

Valid HTML 4.01!